030  
ASUS46 KPDT 261510  
RWRPDT  
PENDLETON REGIONAL WEATHER ROUNDUP  
NATIONAL WEATHER SERVICE PENDLETON OREGON  
700 AM PDT WED APR 25 2018  
 
NOTE: FAIR INDICATES FEW OR NO CLOUDS BELOW 12,000 FEET WITH NO  
SIGNIFICANT WEATHER AND/OR S TO VISIBILITY
.  
 
# INDICATES UNOFFICIAL STATION AND DATA  
 
WAZ520-251510-  
EAST SLOPES OF WASHINGTON CASCADES  
 
CITY SKY/WX TMP DP RH WIND PRES REMARKS
 
#BULLFROG N/A 32 31 96 CALM N/A  
#CLE ELUM HS N/A 34 31 89 CALM 30.07R  
#EASTON DOT N/A 34 31 89 CALM N/A  
#ELK HTS DOT N/A 36 36 100 CALM N/A  
#GLENWOOD N/A 35 33 92 CALM 30.07R  
#NELSON 3SW N/A 38 33 82 CALM 30.30R  
#NILE N/A 37 30 75 W1 29.49R  
#TEANAWAY 4NE N/A 33 31 92 CALM N/A  
#TROUT LAKE 1NE N/A 40 37 89 CALM 30.07S  
#TROUT LAKE 1E N/A 34 32 92 CALM 30.12R  

 
 
WAZ521-251510-  
SIMCOE HIGHLANDS  
 
CITY SKY/WX TMP DP RH WIND PRES REMARKS
 
#BICKLETON HS N/A 45 31 58 NW3 29.74R  
#SATUS PASS DOT N/A 43 32 65 CALM N/A  
#CENTERVILLE 1SWN/A 36 32 85 CALM 30.05R  
#GOLDENDALE 1NE N/A 42 21 43 N2 N/A  
#GOLDENDALE 4W N/A 39 25 57 CALM 30.11S  
#GOODNOE HILLS N/A 52 37 56 N2 30.00R  
#LYLE 6NE N/A 46 37 71 NE3 30.06S  
#PITT 4SE N/A 48 34 58 CALM 30.07R  

 
 
WAZ026-251510-  
KITTITAS VALLEY  
 
CITY SKY/WX TMP DP RH WIND PRES REMARKS
 
ELLENSBURG AP CLEAR 39 33 79 CALM 30.11R  
#ELLENSBURG CWU N/A 38 32 79 CALM 30.05R  
#ELLENSBURG 3NE N/A 38 33 82 CALM 28.19R  
#KITTITAS 3S N/A 35 32 89 CALM 30.11R  
#MANASTASH RDG N/A 47 47 100 W6 N/A  
#ROCKY CYN DOT N/A 40 35 82 NW3 N/A  
#RYEGRASS DOT N/A 43 31 62 CALM N/A  

 
 
WAZ027-251510-  
YAKIMA VALLEY  
 
CITY SKY/WX TMP DP RH WIND PRES REMARKS
 
SUNNYSIDE AP CLEAR 38 35 89 CALM 30.09R  
YAKIMA AIRPORT CLEAR 45 35 68 W6 30.10R  
YAKIMA-VAGABOND CLEAR 48 31 51 NE7 30.08R  
#DONALD 2NE N/A 53 0 11 W3 28.93R  
#GRANDVIEW N/A 44 34 68 CALM 30.09R  
#MABTON N/A 43 37 79 CALM 30.09R  
#MOXEE 2E N/A 37 N/A N/A SW12 29.79S WCI 29  
#NACHES 2SW N/A 48 33 56 W7 30.08S  
#OUTLOOK DOT N/A 44 37 76 CALM 30.05R  
#PARKER DOT N/A 54 30 40 SE12 30.07R  
#TERRACE HTS N/A 42 34 73 CALM 30.04R  
#TOPPENISH N/A 47 37 68 CALM 30.00R  
#I82 S UMTANUM RN/A 50 30 46 NE9 N/A  
#UNION GAP DOT N/A 53 30 41 NW6 30.12R  
#W YAKIMA N/A 49 33 54 N6 30.08R  
#WHITE SWAN 5E N/A 42 36 79 CALM 30.08R  
#WILEY CITY 3W N/A 42 33 70 CALM 30.06R  
#ZILLAH DOT N/A 44 35 70 NE1 N/A  

 
 
WAZ028-251510-  
LOWER COLUMBIA BASIN...WASHINGTON  
 
CITY SKY/WX TMP DP RH WIND PRES REMARKS
 
PASCO CLEAR 45 39 79 E3 30.10R  
PROSSER AWOS N/A 41 39 93 CALM 30.12R  
RICHLAND AWOS CLEAR 47 41 79 MISG 30.09R  
#BASIN CITY 5SW N/A 42 38 86 CALM 30.07R  
#BENTON CITY N/A 47 35 63 CALM 29.98R  
#CONNELL 5N N/A 40 35 82 CALM 30.07R  
#CONNELL 5NW N/A 41 17 37 CALM 30.02R  
#ELTOPIA 6NW N/A 45 38 76 CALM 29.05R  
#KAHLOTUS N/A 43 37 79 S1 30.06R  
#KENNEWICK 3S N/A 50 36 58 CALM 30.07R  
#PROSSER DOT N/A 43 37 79 CALM 30.09R  
#SAGEMOOR 2W N/A 48 37 65 N1 29.94R  
#TOUCHET 2S N/A 40 38 92 CALM 30.06R  
#WEST PASCO N/A 49 40 71 CALM 30.11R  

 
 
WAZ029-251510-  
FOOTHILLS OF THE BLUES...WASHINGTON  
 
CITY SKY/WX TMP DP RH WIND PRES REMARKS
 
WALLA WALLA AP CLEAR 52 40 63 S3 30.08R  
#CLYDE 6NW N/A 42 36 79 CALM 30.05R  
#DELANEY DOT N/A 39 35 85 SW1 30.10R  
#LOWDEN 2SE N/A 42 40 93 CALM 30.05R  
#PLEASANT VIEW 1N/A 50 38 63 CALM 30.07R  
#PRESCOTT N/A 42 38 86 CALM 30.06R  
#WHITMAN COLLEGEN/A 55 38 53 CALM 30.11R  
#WAITSBURG 5S N/A 51 35 54 CALM 30.14R  
#WAITSBURG 6SSE N/A 49 36 61 SE3 29.89R  
#WAITSBURG 8N N/A 48 N/A N/A CALM 29.85R  
#WALLA WALLA 5E N/A 48 40 74 N2 N/A  
#WHITMAN MISSIONN/A 43 40 89 CALM 30.09R  

 
 
WAZ030-251510-  
BLUE MOUNTAINS...WASHINGTON  
 
CITY SKY/WX TMP DP RH WIND PRES REMARKS
 

 
 
ORZ009-041-WAZ024-251510-  
COLUMBIA RIVER GORGE  
 
CITY SKY/WX TMP DP RH WIND PRES REMARKS
 
HOOD RIVER AP CLEAR 45 39 79 CALM 30.10R  
THE DALLES AP CLEAR 45 39 79 CALM 30.09R  
#ARLINGTON AIRPON/A 47 39 74 SW2 30.08R  
#LYLE N/A 50 40 68 N5 30.09R  
#MARYHILL N/A 48 36 63 CALM 29.94  
#MURDOCK N/A 47 41 79 CALM 30.06R  
 

 
 
ORZ510-251510-  
NORTH CENTRAL OREGON  
 
CITY SKY/WX TMP DP RH WIND PRES REMARKS
 
#ANTELOPE N/A 39 35 85 N1 29.94S  
#DUFUR N/A 40 36 85 CALM 30.04R  
#DUFUR 9E N/A 57 36 45 SE6 30.09S  
#GRASS VALLEY 1SN/A 46 37 71 S5 30.10R  
#MAUPIN SCHOOL N/A 45 38 76 CALM 30.16R  
#TYGH VALLEY 2NEN/A 43 37 79 CALM 30.08R  
#WAPANITIA AIRPON/A 41 36 82 CALM 30.09R  
#WASCO 5NE N/A 43 37 79 CALM 30.06S  

 
 
ORZ511-251510-  
CENTRAL OREGON  
 
CITY SKY/WX TMP DP RH WIND PRES REMARKS
 
BEND AIRPORT CLEAR 43 34 70 SW5 30.14R  
MADRAS AIRPORT CLEAR 43 36 76 SE7 30.13R  
PRINEVILLE AP CLEAR 41 32 70 CALM 30.14R  
REDMOND AIRPORT CLEAR 39 30 70 SE3 30.13R  
#ASHWOOD SCHOOL N/A 38 34 85 CALM 30.07R  
#BEND 1SW N/A 42 34 73 CALM N/A  
#BEND-AWBREY N/A 45 33 63 S7 30.04R  
#BEND-KIM LN N/A 39 33 79 W2 30.01R  
#CULVER N/A 44 35 70 CALM 29.90S  
#CULVER 8W N/A 42 32 67 CALM 30.11R  
#LAKE BILLY CHINN/A 43 N/A N/A CALM 30.18S  
#POWELL BUTTE N/A 48 30 49 S1 30.07R  
#PRINEVILLE N/A 38 33 82 CALM 30.17R  
#PRINEVILLE 3N N/A 39 34 82 CALM 30.09R  
#WARM SPRINGS N/A 41 34 76 CALM 29.95R  
 

 
 
 
ORZ509-251510-  
EAST SLOPES OF OREGON CASCADES  
 
CITY SKY/WX TMP DP RH WIND PRES REMARKS
 
SISTERS AWOS N/A 34 28 78 CALM 30.09R  
#CAMP SHERMAN N/A 32 28 85 CALM 30.16R  
#LA PINE 4NW N/A 29 24 81 CALM 30.12R  
#SISTERS 3N N/A 32 23 69 CALM 30.14R  
#SUNRIVER N/A 37 30 75 S2 30.09R  
#TUMALO 3W N/A 49 33 54 NW2 29.91S  
 

 
 
ORZ044-251510-  
LOWER COLUMBIA BASIN...OREGON  
 
CITY SKY/WX TMP DP RH WIND PRES REMARKS
 
HERMISTON CLEAR 44 41 89 S3 30.08R  
#BOARDMAN SCHOOLN/A 41 37 86 CALM 30.08R  
#BOARDMAN 8SW N/A 45 40 82 SW1 30.07R  
#ECHO 8SW N/A 43 37 79 CALM 30.09R  
#IONE SCHOOL N/A 40 25 55 CALM 30.10R  
#UMATILLA N/A 45 40 82 CALM 30.01R  

 
 
ORZ507-251510-  
NORTHERN FOOTHILLS OF THE BLUES  
 
CITY SKY/WX TMP DP RH WIND PRES REMARKS
 
PENDLETON AIRPT CLEAR 50 37 61 CALM 30.08R  
#ADAMS 3WNW N/A 44 37 76 CALM 30.06R  
#ATHENA N/A 52 36 54 CALM 30.09R  
#CAYUSE N/A 55 37 51 E2 30.04R  
#HELIX SCHOOL N/A 40 36 85 CALM 30.06R  
#HELIX 3N N/A 52 36 54 SE2 30.09R  
#HOLDMAN 5SE N/A 40 37 89 CALM 30.07R  
#HOLDMAN 6E N/A 49 38 66 CALM 29.87R  
#M-F GROVE ELEM N/A 48 36 63 CALM 30.05R  
#M-FREEWATER 5SEN/A 47 38 71 CALM 30.07R  
#PENDLETON DNTN N/A 43 34 70 CALM N/A  
#PDT AQUATIC CTRN/A 44 34 68 CALM 30.05S  
#PDT SUNRIDGE N/A 40 36 85 CALM 30.10R  
#PENDLETON 6SE N/A 48 39 71 CALM 30.01R  
#PENDLETON 7NW N/A 39 35 85 CALM N/A  
#PILOT ROCK 1S N/A 44 32 62 CALM 30.09R  
#PILOT ROCK N/A 46 35 65 CALM 30.09S  
#TUTUILLA N/A 40 35 82 CALM 30.13R  
#UMAPINE 2E N/A 43 39 86 CALM 30.05R  
 

 
 
ORZ508-251510-  
SOUTHERN FOOTHILLS OF THE BLUES  
 
CITY SKY/WX TMP DP RH WIND PRES REMARKS
 
#AJAX N/A 51 33 50 CALM 30.23R  
#CONDON 5W N/A 52 35 52 S2 30.08R  
#FOSSIL SCHOOL N/A 42 35 76 CALM 30.03R  
#HEPPNER EOC N/A 48 35 60 E7 29.99R  
#HEPPNER 4NE N/A 51 35 54 CALM 30.06R  
#LEXINGTON 2SE N/A 46 38 73 S3 30.07R  
#MIKKALO N/A 43 35 73 SE5 30.18R  
#OLEX 4N N/A 43 39 86 CALM 30.06R  
#RUGGS 2SW N/A 52 31 44 SW8 30.07R  
 

 
 
ORZ502-503-251510-  
BLUE MOUNTAINS  
 
CITY SKY/WX TMP DP RH WIND PRES REMARKS
 
MEACHAM CLEAR 36 30 79 CALM 30.14R  
#GRANITE N/A 27 19 71 CALM 29.85S  
#HARDMAN 10S N/A 47 30 51 CALM 30.17R  
#PIKES PEAK N/A 58 27 30 S3 27.99S  
#SUMMERVILLE 5NWN/A 48 39 71 CALM 26.79R  
#TOLLGATE N/A 47 29 49 SW1 30.18S  
#TROY SCHOOL N/A 41 39 93 CALM 30.00R  
#UKIAH N/A 30 28 92 CALM 30.08R  
#WESTON 4E N/A 55 32 41 E9 30.01R  

 
 
ORZ505-251510-  
JOHN DAY BASIN  
 
CITY SKY/WX TMP DP RH WIND PRES REMARKS
 
JOHN DAY CLEAR 46 30 53 E9 30.16R  
#ANTELOPE 9ESE N/A 42 37 82 SW1 N/A  
#DAYVILLE SCHOOLN/A 42 29 60 CALM 30.10R  
#MITCHELL 8NW N/A 53 29 39 CALM 30.05S  
#MONUMENT HS N/A 37 31 79 CALM 30.09R  
#MT. VERNON 5SE N/A 55 26 32 E2 30.10R  
#SPRAY SCHOOL N/A 40 N/A N/A CALM N/A  

 
 
ORZ506-251510-  
OCHOCO AND JOHN DAY HIGHLANDS  
 
CITY SKY/WX TMP DP RH WIND PRES REMARKS
 
#IZEE 6NW N/A 30 28 92 S1 N/A  
#PINE MTN OBS N/A 53 17 24 S1 N/A  
#PRAIRIE CITY N/A 30 26 85 CALM 30.29S  
#SENECA N/A 28 N/A N/A CALM N/A  
#SENECA 9NW N/A 27 25 92 CALM 30.17R  

 
 
ORZ049-251510-  
GRANDE RONDE VALLEY  
 
CITY SKY/WX TMP DP RH WIND PRES REMARKS
 
LA GRANDE CLEAR 54 32 43 S10 30.16R  
#COVE SCHOOL N/A 41 33 73 CALM 30.15R  
#COVE 6NW N/A 42 33 70 CALM 30.13R  
#ELGIN 3N N/A 37 32 82 CALM 30.12R  
#ELGIN 1E N/A 35 30 82 CALM N/A  
#IMBLER SCHOOL N/A 36 32 85 CALM 30.11R  
#ISLAND CITY 4N N/A 49 43 80 CALM 30.03R  
#UNION 1S N/A 51 33 50 S8 30.11S  

 
 
ORZ050-251510-  
WALLOWA COUNTY  
 
CITY SKY/WX TMP DP RH WIND PRES REMARKS
 
#ENTERPRISE HS N/A 36 31 82 CALM 30.02S  
#IMNAHA SCHOOL N/A 48 37 65 N6 30.12R  
#IMNAHA 10S N/A 56 33 42 S2 30.11S  
#JOSEPH N/A 44 26 49 CALM 30.32S  
#JOSEPH 3N N/A 36 26 67 CALM 30.17R  
#JOSEPH 3W N/A 50 32 50 N1 29.99R  
#LOSTINE N/A 37 31 79 CALM 29.95R  
#LOSTINE 3SE N/A 34 30 85 CALM 30.22R  
#MT HOWARD 8000 N/A 39 21 48 SW8 30.24R  
#PROMISE 1S N/A 45 34 65 CALM 30.16S  
#WALLOWA LAKE N/A 51 30 44 SW5 30.19S  
#WALLOWA SCHOOL N/A 33 29 85 CALM 30.13R  
 

 
 
CLICK HERE TO GO TO PREVIOUS BULLETINS.

The Nexlab OR Page
The Nexlab WA Page Main Text Page